User: anonymous   Login
Location: La B�doule
(43.2468°N, 5.5934°E)
Time: 15:55:17
(UTC+00:00)
Language:

STARLINK-1365 - Orbit

View from above orbital plane
View from above orbital plane
View from above satellite
View from above satellite

Ground track
Ground track

The orbit data is extracted from the following two-line orbital elements,

1 45590C 20025BM  21164.46112122 -.00022765  00000-0 -15256-2 0  1644
2 45590  53.0547 313.9249 0001296 119.5697 333.7080 15.06414439    18
Epoch (UTC): 13 June 2021 11:04:00
Eccentricity: 0.0001296
inclination: 53.0547°
perigee height: 546 km
apogee height: 548 km
right ascension of ascending node: 313.9249°
argument of perigee: 119.5697°
revolutions per day: 15.06414439
mean anomaly at epoch: 333.7080°
orbit number at epoch: 1

The dashed part of the orbit path shows where the satellite is in the earth's shadow,  

DLR